Location: Newark
(53.3333°N, 83.7500°E)
Time: 20:14:20
(UTC+00:00)

Vanguard 2 - Pass Details

Date: 24 November 2019
Orbit: 553 x 2938 km, 32.9° (Epoch: 05 December)

Event Time Altitude Azimuth Distance (km) Brightness Sun altitude
Rises 03:45:39 0° 246° (WSW) 5,444 11.8 9.7°
Reaches altitude 10° 03:51:16 10° 230° (SW) 3,914 11.3 10.2°
Maximum altitude 03:56:47 17° 195° (SSW) 2,857 11.2 10.7°
Drops below altitude 10° 04:01:05 10° 158° (SSE) 2,895 13.0 11.0°
Sets 04:04:20 0° 137° (SE) 3,509 12.7 11.2°
